Time,TemperatureF,DewpointF,PressureIn,WindDirection,WindDirectionDegrees,WindSpeedMPH,WindSpeedGustMPH,Humidity,HourlyPrecipIn,Conditions,Clouds,dailyrainin,SoftwareType,DateUTC
2013-02-27 00:00:00,41.0,38.0,30.17,SE,140,3.0,-999.0,86,-99.99,,,-99.99,,2013-02-27 08:00:00,
2013-02-27 00:21:00,41.0,38.0,30.17,SE,140,3.0,-999.0,86,-99.99,,,-99.99,,2013-02-27 08:21:00,
2013-02-27 00:31:00,41.0,38.0,30.17,SE,140,3.0,-999.0,86,-99.99,,,-99.99,,2013-02-27 08:31:00,
2013-02-27 00:41:00,41.0,38.0,30.17,SE,140,3.0,-999.0,86,-99.99,,,-99.99,,2013-02-27 08:41:00,
2013-02-27 00:52:00,41.0,38.0,30.17,SE,140,3.0,-999.0,86,-99.99,,,-99.99,,2013-02-27 08:52:00,
2013-02-27 01:00:00,42.0,40.0,30.19,NW,310,6.0,-999.0,91,-99.99,,,-99.99,,2013-02-27 09:00:00,
2013-02-27 01:21:00,42.0,40.0,30.19,NW,310,6.0,-999.0,91,-99.99,,,-99.99,,2013-02-27 09:21:00,
2013-02-27 01:31:00,42.0,40.0,30.19,NW,310,6.0,-999.0,91,-99.99,,,-99.99,,2013-02-27 09:31:00,
2013-02-27 01:41:00,42.0,40.0,30.19,NW,310,6.0,-999.0,91,-99.99,,,-99.99,,2013-02-27 09:41:00,
2013-02-27 01:51:00,42.0,40.0,30.19,NW,310,6.0,-999.0,91,-99.99,,,-99.99,,2013-02-27 09:51:00,
2013-02-27 02:00:00,38.0,38.0,30.20,South,190,1.0,-999.0,97,-99.99,,,-99.99,,2013-02-27 10:00:00,
2013-02-27 02:21:00,38.0,38.0,30.20,South,190,1.0,-999.0,97,-99.99,,,-99.99,,2013-02-27 10:21:00,
2013-02-27 02:31:00,38.0,38.0,30.20,South,190,1.0,-999.0,97,-99.99,,,-99.99,,2013-02-27 10:31:00,
2013-02-27 02:41:00,38.0,38.0,30.20,South,190,1.0,-999.0,97,-99.99,,,-99.99,,2013-02-27 10:41:00,
2013-02-27 02:52:00,38.0,38.0,30.20,South,190,1.0,-999.0,97,-99.99,,,-99.99,,2013-02-27 10:52:00,
2013-02-27 03:00:00,40.0,39.0,30.21,NW,320,1.0,-999.0,97,-99.99,,,-99.99,,2013-02-27 11:00:00,
2013-02-27 03:21:00,40.0,39.0,30.21,NW,320,1.0,-999.0,97,-99.99,,,-99.99,,2013-02-27 11:21:00,
2013-02-27 03:31:00,40.0,39.0,30.21,NW,320,1.0,-999.0,97,-99.99,,,-99.99,,2013-02-27 11:31:00,
2013-02-27 03:41:00,40.0,39.0,30.21,NW,320,1.0,-999.0,97,-99.99,,,-99.99,,2013-02-27 11:41:00,
2013-02-27 03:51:00,40.0,39.0,30.21,NW,320,1.0,-999.0,97,-99.99,,,-99.99,,2013-02-27 11:51:00,
2013-02-27 04:00:00,41.0,40.0,30.22,North,10,2.0,-999.0,96,-99.99,,,-99.99,,2013-02-27 12:00:00,
2013-02-27 04:21:00,41.0,40.0,30.22,North,10,2.0,-999.0,96,-99.99,,,-99.99,,2013-02-27 12:21:00,
2013-02-27 04:32:00,41.0,40.0,30.22,North,10,2.0,-999.0,96,-99.99,,,-99.99,,2013-02-27 12:32:00,
2013-02-27 04:41:00,41.0,40.0,30.22,North,10,2.0,-999.0,96,-99.99,,,-99.99,,2013-02-27 12:41:00,
2013-02-27 04:52:00,41.0,40.0,30.22,North,10,2.0,-999.0,96,-99.99,,,-99.99,,2013-02-27 12:52:00,
2013-02-27 05:00:00,39.0,39.0,30.25,North,0,0.0,-999.0,98,-99.99,,,-99.99,,2013-02-27 13:00:00,
2013-02-27 05:21:00,39.0,39.0,30.25,North,0,0.0,-999.0,98,-99.99,,,-99.99,,2013-02-27 13:21:00,
2013-02-27 05:31:00,39.0,39.0,30.25,North,0,0.0,-999.0,98,-99.99,,,-99.99,,2013-02-27 13:31:00,
2013-02-27 05:41:00,39.0,39.0,30.25,North,0,0.0,-999.0,98,-99.99,,,-99.99,,2013-02-27 13:41:00,
2013-02-27 05:52:00,39.0,39.0,30.25,North,0,0.0,-999.0,98,-99.99,,,-99.99,,2013-02-27 13:52:00,
2013-02-27 06:21:00,38.0,38.0,30.27,NNW,340,2.0,-999.0,99,-99.99,,,-99.99,,2013-02-27 14:21:00,
2013-02-27 06:31:00,38.0,38.0,30.27,NNW,340,2.0,-999.0,99,-99.99,,,-99.99,,2013-02-27 14:31:00,
2013-02-27 06:41:00,38.0,38.0,30.27,NNW,340,2.0,-999.0,99,-99.99,,,-99.99,,2013-02-27 14:41:00,
2013-02-27 06:52:00,38.0,38.0,30.27,NNW,340,2.0,-999.0,99,-99.99,,,-99.99,,2013-02-27 14:52:00,
2013-02-27 07:00:00,38.0,37.0,30.28,NNE,20,1.0,-999.0,99,-99.99,,,-99.99,,2013-02-27 15:00:00,
2013-02-27 07:21:00,38.0,37.0,30.28,NNE,20,1.0,-999.0,99,-99.99,,,-99.99,,2013-02-27 15:21:00,
2013-02-27 07:31:00,38.0,37.0,30.28,NNE,20,1.0,-999.0,99,-99.99,,,-99.99,,2013-02-27 15:31:00,
2013-02-27 07:41:00,38.0,37.0,30.28,NNE,20,1.0,-999.0,99,-99.99,,,-99.99,,2013-02-27 15:41:00,
2013-02-27 07:51:00,38.0,37.0,30.28,NNE,20,1.0,-999.0,99,-99.99,,,-99.99,,2013-02-27 15:51:00,
2013-02-27 08:00:00,38.0,38.0,30.29,WNW,290,3.0,-999.0,98,-99.99,,,-99.99,,2013-02-27 16:00:00,
2013-02-27 08:21:00,38.0,38.0,30.29,WNW,290,3.0,-999.0,98,-99.99,,,-99.99,,2013-02-27 16:21:00,
2013-02-27 08:31:00,38.0,38.0,30.29,WNW,290,3.0,-999.0,98,-99.99,,,-99.99,,2013-02-27 16:31:00,
2013-02-27 08:41:00,38.0,38.0,30.29,WNW,290,3.0,-999.0,98,-99.99,,,-99.99,,2013-02-27 16:41:00,
2013-02-27 08:51:00,38.0,38.0,30.29,WNW,290,3.0,-999.0,98,-99.99,,,-99.99,,2013-02-27 16:51:00,
2013-02-27 09:00:00,41.0,40.0,30.29,NE,40,1.0,-999.0,98,-99.99,,,-99.99,,2013-02-27 17:00:00,
2013-02-27 09:21:00,41.0,40.0,30.29,NE,40,1.0,-999.0,98,-99.99,,,-99.99,,2013-02-27 17:21:00,
2013-02-27 09:32:00,41.0,40.0,30.29,NE,40,1.0,-999.0,98,-99.99,,,-99.99,,2013-02-27 17:32:00,
2013-02-27 09:41:00,41.0,40.0,30.29,NE,40,1.0,-999.0,98,-99.99,,,-99.99,,2013-02-27 17:41:00,
2013-02-27 09:52:00,41.0,40.0,30.29,NE,40,1.0,-999.0,98,-99.99,,,-99.99,,2013-02-27 17:52:00,
2013-02-27 10:00:00,41.0,40.0,30.29,WNW,290,5.0,-999.0,95,-99.99,,,-99.99,,2013-02-27 18:00:00,
2013-02-27 10:21:00,41.0,40.0,30.29,WNW,290,5.0,-999.0,95,-99.99,,,-99.99,,2013-02-27 18:21:00,
2013-02-27 10:31:00,41.0,40.0,30.29,WNW,290,5.0,-999.0,95,-99.99,,,-99.99,,2013-02-27 18:31:00,
2013-02-27 10:41:00,41.0,40.0,30.29,WNW,290,5.0,-999.0,95,-99.99,,,-99.99,,2013-02-27 18:41:00,
2013-02-27 10:51:00,41.0,40.0,30.29,WNW,290,5.0,-999.0,95,-99.99,,,-99.99,,2013-02-27 18:51:00,
2013-02-27 11:00:00,43.0,41.0,30.30,North,360,3.0,-999.0,92,-99.99,,,-99.99,,2013-02-27 19:00:00,
2013-02-27 11:21:00,43.0,41.0,30.30,North,360,3.0,-999.0,92,-99.99,,,-99.99,,2013-02-27 19:21:00,
2013-02-27 11:32:00,43.0,41.0,30.30,North,360,3.0,-999.0,92,-99.99,,,-99.99,,2013-02-27 19:32:00,
2013-02-27 11:41:00,43.0,41.0,30.30,North,360,3.0,-999.0,92,-99.99,,,-99.99,,2013-02-27 19:41:00,
2013-02-27 11:51:00,43.0,41.0,30.30,North,360,3.0,-999.0,92,-99.99,,,-99.99,,2013-02-27 19:51:00,
2013-02-27 12:00:00,45.0,41.0,30.31,NNW,330,2.0,-999.0,84,-99.99,,,-99.99,,2013-02-27 20:00:00,
2013-02-27 12:21:00,45.0,41.0,30.31,NNW,330,2.0,-999.0,84,-99.99,,,-99.99,,2013-02-27 20:21:00,
2013-02-27 12:31:00,45.0,41.0,30.31,NNW,330,2.0,-999.0,84,-99.99,,,-99.99,,2013-02-27 20:31:00,
2013-02-27 12:41:00,45.0,41.0,30.31,NNW,330,2.0,-999.0,84,-99.99,,,-99.99,,2013-02-27 20:41:00,
2013-02-27 12:51:00,45.0,41.0,30.31,NNW,330,2.0,-999.0,84,-99.99,,,-99.99,,2013-02-27 20:51:00,
2013-02-27 13:00:00,46.0,39.0,30.30,ESE,120,7.0,-999.0,75,-99.99,,,-99.99,,2013-02-27 21:00:00,
2013-02-27 13:21:00,46.0,39.0,30.30,ESE,120,7.0,-999.0,75,-99.99,,,-99.99,,2013-02-27 21:21:00,
2013-02-27 13:31:00,46.0,39.0,30.30,ESE,120,7.0,-999.0,75,-99.99,,,-99.99,,2013-02-27 21:31:00,
2013-02-27 13:41:00,46.0,39.0,30.30,ESE,120,7.0,-999.0,75,-99.99,,,-99.99,,2013-02-27 21:41:00,
2013-02-27 13:51:00,46.0,39.0,30.30,ESE,120,7.0,-999.0,75,-99.99,,,-99.99,,2013-02-27 21:51:00,
2013-02-27 14:00:00,46.0,40.0,30.30,ESE,110,5.0,-999.0,81,-99.99,,,-99.99,,2013-02-27 22:00:00,
2013-02-27 14:21:00,46.0,40.0,30.30,ESE,110,5.0,-999.0,81,-99.99,,,-99.99,,2013-02-27 22:21:00,
2013-02-27 14:31:00,46.0,40.0,30.30,ESE,110,5.0,-999.0,81,-99.99,,,-99.99,,2013-02-27 22:31:00,
2013-02-27 14:41:00,46.0,40.0,30.30,ESE,110,5.0,-999.0,81,-99.99,,,-99.99,,2013-02-27 22:41:00,
2013-02-27 14:51:00,46.0,40.0,30.30,ESE,110,5.0,-999.0,81,-99.99,,,-99.99,,2013-02-27 22:51:00,
2013-02-27 15:00:00,45.0,39.0,30.29,ESE,110,6.0,-999.0,78,-99.99,,,-99.99,,2013-02-27 23:00:00,
2013-02-27 15:21:00,45.0,39.0,30.29,ESE,110,6.0,-999.0,78,-99.99,,,-99.99,,2013-02-27 23:21:00,
2013-02-27 15:31:00,45.0,39.0,30.29,ESE,110,6.0,-999.0,78,-99.99,,,-99.99,,2013-02-27 23:31:00,
2013-02-27 15:41:00,45.0,39.0,30.29,ESE,110,6.0,-999.0,78,-99.99,,,-99.99,,2013-02-27 23:41:00,
2013-02-27 15:52:00,45.0,39.0,30.29,ESE,110,6.0,-999.0,78,-99.99,,,-99.99,,2013-02-27 23:52:00,
2013-02-27 16:00:00,45.0,38.0,30.28,SE,130,3.0,-999.0,73,-99.99,,,-99.99,,2013-02-28 00:00:00,
2013-02-27 16:21:00,45.0,38.0,30.28,SE,130,3.0,-999.0,73,-99.99,,,-99.99,,2013-02-28 00:21:00,
2013-02-27 16:31:00,45.0,38.0,30.28,SE,130,3.0,-999.0,73,-99.99,,,-99.99,,2013-02-28 00:31:00,
2013-02-27 16:42:00,45.0,38.0,30.28,SE,130,3.0,-999.0,73,-99.99,,,-99.99,,2013-02-28 00:42:00,
2013-02-27 16:51:00,45.0,38.0,30.28,SE,130,3.0,-999.0,73,-99.99,,,-99.99,,2013-02-28 00:51:00,
2013-02-27 17:00:00,47.0,40.0,30.28,ENE,70,5.0,-999.0,77,-99.99,,,-99.99,,2013-02-28 01:00:00,
2013-02-27 17:21:00,47.0,40.0,30.28,ENE,70,5.0,-999.0,77,-99.99,,,-99.99,,2013-02-28 01:21:00,
2013-02-27 17:31:00,47.0,40.0,30.28,ENE,70,5.0,-999.0,77,-99.99,,,-99.99,,2013-02-28 01:31:00,
2013-02-27 17:41:00,47.0,40.0,30.28,ENE,70,5.0,-999.0,77,-99.99,,,-99.99,,2013-02-28 01:41:00,
2013-02-27 17:51:00,47.0,40.0,30.28,ENE,70,5.0,-999.0,77,-99.99,,,-99.99,,2013-02-28 01:51:00,
2013-02-27 18:00:00,45.0,38.0,30.28,SSW,210,6.0,-999.0,77,-99.99,,,-99.99,,2013-02-28 02:00:00,
2013-02-27 18:21:00,45.0,38.0,30.28,SSW,210,6.0,-999.0,77,-99.99,,,-99.99,,2013-02-28 02:21:00,
2013-02-27 18:31:00,45.0,38.0,30.28,SSW,210,6.0,-999.0,77,-99.99,,,-99.99,,2013-02-28 02:31:00,
2013-02-27 18:41:00,45.0,38.0,30.28,SSW,210,6.0,-999.0,77,-99.99,,,-99.99,,2013-02-28 02:41:00,
2013-02-27 18:51:00,45.0,38.0,30.28,SSW,210,6.0,-999.0,77,-99.99,,,-99.99,,2013-02-28 02:51:00,
2013-02-27 19:00:00,44.0,38.0,30.29,North,0,0.0,-999.0,79,-99.99,,,-99.99,,2013-02-28 03:00:00,
2013-02-27 19:21:00,44.0,38.0,30.29,North,0,0.0,-999.0,79,-99.99,,,-99.99,,2013-02-28 03:21:00,
2013-02-27 19:31:00,44.0,38.0,30.29,North,0,0.0,-999.0,79,-99.99,,,-99.99,,2013-02-28 03:31:00,
2013-02-27 19:41:00,44.0,38.0,30.29,North,0,0.0,-999.0,79,-99.99,,,-99.99,,2013-02-28 03:41:00,
2013-02-27 19:51:00,44.0,38.0,30.29,North,0,0.0,-999.0,79,-99.99,,,-99.99,,2013-02-28 03:51:00,
2013-02-27 20:00:00,44.0,40.0,30.29,North,350,1.0,-999.0,85,-99.99,,,-99.99,,2013-02-28 04:00:00,
2013-02-27 20:21:00,44.0,40.0,30.29,North,350,1.0,-999.0,85,-99.99,,,-99.99,,2013-02-28 04:21:00,
2013-02-27 20:31:00,44.0,40.0,30.29,North,350,1.0,-999.0,85,-99.99,,,-99.99,,2013-02-28 04:31:00,
2013-02-27 20:41:00,44.0,40.0,30.29,North,350,1.0,-999.0,85,-99.99,,,-99.99,,2013-02-28 04:41:00,
2013-02-27 20:51:00,44.0,40.0,30.29,North,350,1.0,-999.0,85,-99.99,,,-99.99,,2013-02-28 04:51:00,
2013-02-27 21:00:00,42.0,40.0,30.29,WNW,290,2.0,-999.0,93,-99.99,,,-99.99,,2013-02-28 05:00:00,
2013-02-27 21:22:00,42.0,40.0,30.29,WNW,290,2.0,-999.0,93,-99.99,,,-99.99,,2013-02-28 05:22:00,
2013-02-27 21:31:00,42.0,40.0,30.29,WNW,290,2.0,-999.0,93,-99.99,,,-99.99,,2013-02-28 05:31:00,
2013-02-27 21:42:00,42.0,40.0,30.29,WNW,290,2.0,-999.0,93,-99.99,,,-99.99,,2013-02-28 05:42:00,
2013-02-27 21:51:00,42.0,40.0,30.29,WNW,290,2.0,-999.0,93,-99.99,,,-99.99,,2013-02-28 05:51:00,
2013-02-27 22:00:00,42.0,41.0,30.30,NNW,330,5.0,-999.0,95,-99.99,,,-99.99,,2013-02-28 06:00:00,
2013-02-27 22:21:00,42.0,41.0,30.30,NNW,330,5.0,-999.0,95,-99.99,,,-99.99,,2013-02-28 06:21:00,
2013-02-27 22:31:00,42.0,41.0,30.30,NNW,330,5.0,-999.0,95,-99.99,,,-99.99,,2013-02-28 06:31:00,
2013-02-27 22:41:00,42.0,41.0,30.30,NNW,330,5.0,-999.0,95,-99.99,,,-99.99,,2013-02-28 06:41:00,
2013-02-27 22:51:00,42.0,41.0,30.30,NNW,330,5.0,-999.0,95,-99.99,,,-99.99,,2013-02-28 06:51:00,
2013-02-27 23:00:00,42.0,41.0,30.29,NW,310,6.0,-999.0,98,-99.99,,,-99.99,,2013-02-28 07:00:00,
2013-02-27 23:21:00,42.0,41.0,30.29,NW,310,6.0,-999.0,98,-99.99,,,-99.99,,2013-02-28 07:21:00,
2013-02-27 23:31:00,42.0,41.0,30.29,NW,310,6.0,-999.0,98,-99.99,,,-99.99,,2013-02-28 07:31:00,
2013-02-27 23:41:00,42.0,41.0,30.29,NW,310,6.0,-999.0,98,-99.99,,,-99.99,,2013-02-28 07:41:00,
2013-02-27 23:51:00,42.0,41.0,30.29,NW,310,6.0,-999.0,98,-99.99,,,-99.99,,2013-02-28 07:51:00,